Flag for Slovakia Weather past 2 weeks in Prievidza, Slovakia

Now
63 °F

Light rain. Overcast.


Feels Like: 63 °F
Forecast: 45 / 65 °F
Wind: N/A

Location: Prievidza

Current Time: Aug 23, 2014 at 8:45:14 PM

Latest Report: Aug 23, 2014 at 8:00 PM


Visibility: 13 mi

Pressure: 29.89 "Hg

Humidity: 86%

Dew point: 59 °F

Location of PrievidzaLocation

Historic Weather in Prievidza — Graph

°F

Prievidza temperature yesterday

Maximum temperature yesterday: 69 °F (at 4:00 PM)
Minimum temperature yesterday: 46 °F (at 5:00 AM)
Average temperature yesterday: 59 °F

Past Weeks' High & Low Weather Summary

 TemperatureHumidityPressure
High88 °F (Aug 11, 3:00 PM)97% (Aug 15, 2:00 AM)30.12 "Hg (Aug 15, 2:00 AM)
Low46 °F (Aug 22, 5:00 AM)35% (Aug 20, 3:00 PM)29.63 "Hg (Aug 13, 10:00 PM)
Average65 °F76%29.94 "Hg
* Reported Aug 8 7:00 PM — Aug 23 7:00 PM, Prievidza, Weather by CustomWeather, © 2014

Note: Actual official high and low records may vary slightly from our data, if they occured in-between our weather recording intervals... More about our weather records

Advertising

Prievidza weather history for previous 24 hours

 ConditionsComfort  
Time TempWeatherWind HumidityBarometerVisibility
7:00 PM
Aug 23
68 °FOvercast.N/A70%29.87 "Hg19 mi
6:00 PM70 °FOvercast.N/A62%29.88 "Hg25 mi
5:00 PM71 °FOvercast.2 mph60%29.89 "Hg28 mi
4:00 PM74 °FOvercast.N/A52%29.90 "Hg25 mi
3:00 PM74 °FOvercast.3 mph55%29.92 "Hg28 mi
2:00 PM76 °FPartly sunny.N/A50%29.93 "Hg25 mi
1:00 PM75 °FPartly sunny.N/A48%29.95 "Hg22 mi
12:00 PM72 °FPartly sunny.N/A59%29.96 "Hg22 mi
11:00 AM69 °FOvercast.No wind65%29.99 "Hg22 mi
10:00 AM66 °FOvercast.N/A71%29.99 "Hg19 mi
9:00 AM62 °FOvercast.2 mph80%30.01 "Hg22 mi
8:00 AM60 °FPartly sunny.N/A92%30.01 "Hg19 mi
7:00 AM57 °FCool.No wind93%30.01 "Hg12 mi
6:00 AM56 °FLight rain. Cloudy.1 mph94%30.01 "Hg6 mi
5:00 AM56 °FLight rain. Overcast.No wind93%30.00 "Hg9 mi
4:00 AM56 °FCool.N/A91%30.00 "Hg13 mi
3:00 AM56 °FCool.1 mph90%30.02 "Hg22 mi
2:00 AM55 °FCool.1 mph91%30.03 "Hg15 mi
1:00 AM55 °FCool.No wind92%30.03 "Hg10 mi
12:00 AM55 °FCool.2 mph90%30.03 "Hg12 mi
11:00 PM
Aug 22
57 °FCool.N/A89%30.03 "Hg15 mi
10:00 PM58 °FPassing clouds.N/A88%30.03 "Hg16 mi
9:00 PM59 °FPassing clouds.2 mph84%30.01 "Hg19 mi
8:00 PM63 °FPassing clouds.1 mph79%30.00 "Hg22 mi
Weather by CustomWeather, © 2014

See weather overviewHow to use our weather pages